THORAD AGENA D DEB, 4644

Orbit data source: Space-Track

THORAD AGENA D DEB, 4644 is space debris in SSO originally from a launch on Wed, 08 Apr 1970 UTC launched from the Air Force Western Test Range (AFWTR). Debris objects in space refer to the collection of defunct objects orbiting the Earth. Examples of debris include non-operational satellites, rocket bodies, and fragments generated from explosions, collisions, or faulty payload assembly.

Loading next visibility...
Identifier
4644, 1970-025AC
Orbit
SSO
Country
Flag of USUS
Related business
Manufacturer
Unknown
Mission
Spacecraft
Bus & Motor
Unknown
Mass
Unknown
Launch date (UTC)
1970-04-08 (55 years ago)
Launch vehicle
Unknown
Launch site
Air Force Western Test Range (AFWTR)
Object type
Payload
Rocket body
Debris
Shape & HBR
Unknown
Radar Cross Section
Medium (>0.1 m² and <1 m²)

Expand to show TLE details & history
Last TLE update: 17 hours ago

TLE from 17 hours ago
0 THORAD AGENA D DEB
1 04644U 70025AC  25261.18161753  .00000209  00000-0  33714-3 0  9992
2 04644  99.5740 156.0281 0010025 267.3728 246.5412 13.60305422740191
Epoch: 2025-09-18T04:21Z
TLE epoch observation values (Epoch: 2025-09-18T04:21:31.754Z)
Latitude
25.83224°
Longitude
-82.04158°
Altitude
1,040.585 km
Speed
7.332 km/s
True Right ascension
22h 42m 45s
True Declination
25° 42' 10"
Sunlit
Object was in full shadow at epoch
Visualization orbit readout
Latitude
Unknown
Longitude
Unknown
Altitude
Unknown
Speed
Unknown
Apparent Right ascension
Unknown
Apparent Declination
Unknown
Sunlit
N/A
Visualization observer readout
Local Sidereal Time
14:25:35
Azimuth
Unknown
Elevation
Unknown
Doppler factor
Unknown
Orbital elements
Apogee altitude
1,039.292 km
Perigee altitude
1,024.435 km
Semi-major axis
7,410 km
Eccentricity
0.001
Inclination
99.574°
RAAN
156.0281°
Arg. of periapsis
267.3728°
True anomaly
246.43587°
Mean anomaly
246.5412°
Eccentric anomaly
246.48853°
Mean motion
3.40264 °/min
Orbital period
105.8 mins
BSTAR
0.00033714
Loading maneuver chart data...
Computing Atmospheric mass density...

Documentation

Showing up to 5 results
|